This demonstration page uses our WeatherBlox Daily Observations layout. Learn more.

Left ArrowRight Arrow

Hourly Observations for January 9, 2016

Temp ( °F °C ) Dew Point ( °F °C ) Humidity (%) Winds ( mph kmh ) Pressure ( in mb ) Visibility ( mi km ) Precip ( " mm )
12:53 am 00:53 Cloudy 50 10 47 8.3 89 89 NE 7 11 29.99 1016 7 11 0.00 0.00
1:23 am 01:23 Cloudy 51 10.6 47 8.3 86 86 ENE 6 9 30.00 1016 10 16 0.00 0.00
1:53 am 01:53 Cloudy 50 10 47 8.3 89 89 E 7 11 29.97 1015 10 16 0.00 0.00
2:10 am 02:10 Cloudy 50 10 46 8 88 88 ENE 5 7 30.00 1016 10 16 0.00 0.00
2:53 am 02:53 Cloudy 50 10 47 8.3 89 89 VRB 5 7 29.98 1015 9 14 0.00 0.00
3:48 am 03:48 Cloudy with Mist and Fog 50 10 46 8 88 88 E 5 7 30.00 1016 6 10 0.00 0.00
3:53 am 03:53 Cloudy 50 10 47 8.3 89 89 E 5 7 29.96 1015 8 13 0.00 0.00
4:01 am 04:01 Cloudy 50 10 47 8.3 89 89 E 5 7 30.00 1016 8 13 0.00 0.00
4:53 am 04:53 Cloudy with Mist and Fog 49 9.4 47 8.3 93 93 E 6 9 29.96 1015 3 5 0.00 0.00
5:15 am 05:15 Cloudy with Mist and Fog 49 9.4 47 8.3 93 93 E 7 11 30.00 1016 4 6 0.00 0.00
5:50 am 05:50 Cloudy 48 9 46 8 94 94 E 7 11 29.97 1015 7 11 0.00 0.00
5:53 am 05:53 Cloudy 49 9.4 47 8.3 93 93 E 6 9 29.95 1014 7 11 0.00 0.00
6:53 am 06:53 Cloudy 49 9.4 46 7.8 90 90 E 6 9 29.97 1015 10 16 0.00 0.00
7:53 am 07:53 Cloudy 49 9.4 46 7.8 90 90 E 7 11 29.95 1014 9 14 0.00 0.00
8:53 am 08:53 Cloudy with Mist and Fog 49 9.4 46 7.8 90 90 ENE 5 7 29.97 1015 6 10 0.00 0.00
9:53 am 09:53 Cloudy 49 9.4 46 7.8 90 90 ENE 6 9 29.96 1015 10 16 0.00 0.00
10:53 am 10:53 Cloudy 50 10 46 7.8 86 86 E 9 15 29.98 1015 10 16 0.00 0.00
11:24 am 11:24 Cloudy 52 11 46 8 82 82 ESE 8 13 30.00 1016 10 16 0.00 0.00
11:53 am 11:53 Cloudy 52 11.1 45 7.2 77 77 E 9 15 29.92 1013 10 16 0.00 0.00
12:53 pm 12:53 Cloudy 52 11.1 45 7.2 77 77 E 9 15 29.87 1012 10 16 0.00 0.00
1:14 pm 13:14 Cloudy 52 11 46 8 82 82 E 6 9 29.88 1012 10 16 0.00 0.00
1:42 pm 13:42 Cloudy 52 11 45 7 77 77 ESE 7 11 29.88 1012 10 16 0.00 0.00
1:53 pm 13:53 Cloudy 52 11.1 45 7.2 77 77 SSE 8 13 29.87 1012 10 16 0.00 0.00
2:06 pm 14:06 Cloudy with Light Rain 52 11 46 8 82 82 E 7 11 29.88 1012 10 16 0.00 0.00
2:53 pm 14:53 Cloudy 51 10.6 46 7.8 83 83 E 5 7 29.83 1010 10 16 0.00 0.03
3:53 pm 15:53 Cloudy 52 11.1 46 7.8 80 80 ESE 9 15 29.79 1009 10 16 0.00 0.00
4:53 pm 16:53 Cloudy 52 11.1 46 7.8 80 80 ESE 8 13 29.76 1008 10 16 0.00 0.00
5:53 pm 17:53 Cloudy 52 11.1 46 7.8 80 80 SE 7 11 29.74 1007 10 16 0.00 0.00
6:43 pm 18:43 Cloudy 51 10.6 47 8.3 86 86 ESE 12 19 29.74 1007 10 16 0.00 0.03
6:53 pm 18:53 Cloudy 51 10.6 47 8.3 86 86 ESE 12 19 29.75 1007 10 16 0.00 0.03
7:53 pm 19:53 Cloudy with Light Rain 50 10 47 8.3 89 89 SE 7 11 29.73 1007 10 16 0.04 1.02
8:53 pm 20:53 Cloudy with Mist and Fog 50 10 47 8.3 89 89 VRB 3 6 29.71 1006 6 10 0.14 3.56
9:53 pm 21:53 Cloudy 51 10.6 48 8.9 89 89 NNW 3 6 29.71 1006 9 14 0.00 0.03
10:53 pm 22:53 Cloudy with Rain 50 10 49 9.4 96 96 Calm 29.70 1006 6 10 0.05 1.27
11:53 pm 23:53 Cloudy 50 10 48 8.9 93 93 NW 3 6 29.69 1005 9 14 0.01 0.25

Powered by AerisWeather